| time (UTC) | temp F | wind direction | speed MPH | gust MPH | rain 1hr in | rain 24hr in | rain mn in | humidity % | barometer mb |
| 20260509233006 | 69 | 244 | 0.0 | 4.0 | 0.00 | 0.01 | 0.01 | 94 | 1010.7 |
| 20260509232506 | 69 | 218 | 1.0 | 4.0 | 0.00 | 0.01 | 0.01 | 93 | 1010.6 |
| 20260509231507 | 69 | 89 | 0.0 | 3.0 | 0.00 | 0.01 | 0.01 | 93 | 1010.5 |
| 20260509231004 | 69 | 242 | 0.0 | 3.0 | 0.00 | 0.01 | 0.01 | 93 | 1010.6 |
| 20260509230505 | 69 | 180 | 0.0 | 1.0 | 0.00 | 0.01 | 0.01 | 93 | 1010.6 |
| 20260509230004 | 70 | 234 | 0.0 | 1.0 | 0.00 | 0.01 | 0.01 | 93 | 1010.6 |
| 20260509225504 | 70 | 234 | 0.0 | 3.0 | 0.00 | 0.01 | 0.01 | 93 | 1010.6 |
| 20260509225005 | 70 | 234 | 0.0 | 3.0 | 0.00 | 0.01 | 0.01 | 93 | 1010.6 |
| 20260509224506 | 70 | 113 | 0.0 | 2.0 | 0.00 | 0.01 | 0.01 | 92 | 1010.6 |
| 20260509224004 | 70 | 233 | 0.0 | 2.0 | 0.00 | 0.01 | 0.01 | 92 | 1010.7 |
| 20260509223504 | 70 | 243 | 0.0 | 3.0 | 0.00 | 0.01 | 0.01 | 92 | 1010.6 |
| 20260509223004 | 70 | 244 | 1.0 | 3.0 | 0.00 | 0.01 | 0.01 | 92 | 1010.7 |
| 20260509222504 | 70 | 245 | 0.0 | 1.0 | 0.00 | 0.01 | 0.01 | 92 | 1010.7 |
| 20260509221505 | 70 | 245 | 0.0 | 4.0 | 0.00 | 0.01 | 0.01 | 92 | 1010.7 |
| 20260509221006 | 70 | 262 | 0.0 | 6.0 | 0.00 | 0.01 | 0.01 | 92 | 1010.8 |
| 20260509220505 | 70 | 263 | 1.0 | 6.0 | 0.00 | 0.01 | 0.01 | 91 | 1010.9 |
| 20260509220006 | 70 | 248 | 0.0 | 4.0 | 0.00 | 0.01 | 0.01 | 91 | 1010.8 |
| 20260509215505 | 70 | 253 | 0.0 | 5.0 | 0.00 | 0.01 | 0.01 | 91 | 1010.8 |
| 20260509215005 | 70 | 98 | 0.0 | 3.0 | 0.00 | 0.01 | 0.01 | 91 | 1010.9 |
| 20260509214505 | 70 | 240 | 0.0 | 3.0 | 0.00 | 0.01 | 0.01 | 91 | 1010.8 |
| 20260509214004 | 70 | 250 | 0.0 | 4.0 | 0.00 | 0.01 | 0.01 | 90 | 1010.7 |
| 20260509213506 | 70 | 255 | 0.0 | 4.0 | 0.00 | 0.01 | 0.01 | 90 | 1010.7 |
| 20260509213006 | 70 | 138 | 0.0 | 3.0 | 0.00 | 0.01 | 0.01 | 90 | 1010.6 |
| 20260509212504 | 70 | 282 | 0.0 | 3.0 | 0.00 | 0.01 | 0.01 | 89 | 1010.6 |
| 20260509211502 | 71 | 151 | 0.0 | 3.0 | 0.00 | 0.01 | 0.01 | 89 | 1010.6 |
| 20260509211005 | 71 | 250 | 0.0 | 4.0 | 0.00 | 0.01 | 0.01 | 89 | 1010.5 |
| 20260509210502 | 71 | 245 | 0.0 | 4.0 | 0.00 | 0.01 | 0.01 | 88 | 1010.4 |
| 20260509210002 | 71 | 223 | 0.0 | 4.0 | 0.00 | 0.01 | 0.01 | 87 | 1010.5 |
| 20260509205503 | 71 | 224 | 0.0 | 2.0 | 0.00 | 0.01 | 0.01 | 87 | 1010.7 |
| 20260509205000 | 71 | 255 | 0.0 | 5.0 | 0.00 | 0.01 | 0.01 | 87 | 1010.6 |
| 20260509204605 | 71 | 264 | 0.0 | 5.0 | 0.00 | 0.01 | 0.01 | 86 | 1010.6 |
| 20260509204100 | 72 | 243 | 1.0 | 5.0 | 0.00 | 0.01 | 0.01 | 85 | 1010.6 |
| 20260509203600 | 72 | 222 | 0.0 | 5.0 | 0.00 | 0.01 | 0.01 | 86 | 1010.6 |
| 20260509203101 | 72 | 252 | 1.0 | 5.0 | 0.00 | 0.01 | 0.01 | 85 | 1010.6 |
| 20260509202559 | 72 | 264 | 0.0 | 2.0 | 0.00 | 0.01 | 0.01 | 85 | 1010.7 |
| 20260509202159 | 72 | 238 | 0.0 | 4.0 | 0.00 | 0.01 | 0.01 | 85 | 1010.8 |
| 20260509201501 | 72 | 238 | 0.0 | 4.0 | 0.00 | 0.01 | 0.01 | 86 | 1010.7 |
| 20260509201003 | 72 | 248 | 0.0 | 5.0 | 0.00 | 0.01 | 0.01 | 86 | 1010.7 |
| 20260509200600 | 71 | 233 | 1.0 | 8.0 | 0.00 | 0.01 | 0.01 | 85 | 1010.7 |
| 20260509200100 | 72 | 212 | 2.0 | 8.0 | 0.00 | 0.01 | 0.01 | 84 | 1010.6 |
| 20260509195600 | 72 | 259 | 0.0 | 8.0 | 0.00 | 0.01 | 0.01 | 85 | 1010.8 |
| 20260509195059 | 72 | 253 | 4.0 | 8.0 | 0.00 | 0.01 | 0.01 | 83 | 1010.9 |
| 20260509194559 | 72 | 248 | 0.0 | 7.0 | 0.00 | 0.01 | 0.01 | 84 | 1010.7 |
| 20260509194101 | 72 | 145 | 0.0 | 7.0 | 0.00 | 0.01 | 0.01 | 84 | 1010.9 |
| 20260509193559 | 72 | 102 | 0.0 | 6.0 | 0.00 | 0.01 | 0.01 | 84 | 1010.9 |
| 20260509193100 | 72 | 250 | 1.0 | 6.0 | 0.00 | 0.01 | 0.01 | 82 | 1011.0 |
| 20260509192557 | 72 | 286 | 1.0 | 8.0 | 0.00 | 0.01 | 0.01 | 82 | 1010.9 |
| 20260509192158 | 73 | 251 | 0.0 | 5.0 | 0.00 | 0.01 | 0.01 | 81 | 1011.2 |
| 20260509191606 | 73 | 229 | 1.0 | 5.0 | 0.00 | 0.01 | 0.01 | 80 | 1011.3 |
| 20260509191058 | 73 | 245 | 0.0 | 5.0 | 0.00 | 0.01 | 0.01 | 81 | 1011.2 |
| 20260509190554 | 73 | 250 | 1.0 | 6.0 | 0.00 | 0.01 | 0.01 | 80 | 1011.2 |
| 20260509190059 | 74 | 286 | 0.0 | 7.0 | 0.00 | 0.01 | 0.01 | 80 | 1011.4 |
| 20260509185554 | 73 | 251 | 0.0 | 9.0 | 0.00 | 0.01 | 0.01 | 80 | 1011.3 |
| 20260509185052 | 73 | 248 | 4.0 | 10.0 | 0.00 | 0.01 | 0.01 | 78 | 1011.3 |
| 20260509184553 | 73 | 262 | 3.0 | 10.0 | 0.00 | 0.01 | 0.01 | 79 | 1011.3 |
| 20260509184053 | 74 | 248 | 2.0 | 11.0 | 0.00 | 0.01 | 0.01 | 79 | 1011.2 |
| 20260509183552 | 74 | 203 | 6.0 | 11.0 | 0.00 | 0.01 | 0.01 | 77 | 1011.3 |
| 20260509183052 | 74 | 203 | 3.0 | 13.0 | 0.00 | 0.01 | 0.01 | 77 | 1011.3 |
| 20260509182551 | 75 | 205 | 4.0 | 13.0 | 0.00 | 0.01 | 0.01 | 76 | 1011.4 |
| 20260509182151 | 75 | 231 | 4.0 | 9.0 | 0.00 | 0.01 | 0.01 | 76 | 1011.5 |
| 20260509181602 | 75 | 219 | 4.0 | 9.0 | 0.00 | 0.01 | 0.01 | 75 | 1011.5 |
| 20260509181053 | 75 | 277 | 2.0 | 9.0 | 0.00 | 0.01 | 0.01 | 78 | 1011.4 |
| 20260509180552 | 75 | 274 | 4.0 | 8.0 | 0.00 | 0.01 | 0.01 | 76 | 1011.6 |
| 20260509180053 | 75 | 153 | 2.0 | 10.0 | 0.00 | 0.01 | 0.01 | 75 | 1011.5 |
| 20260509175551 | 76 | 347 | 3.0 | 10.0 | 0.00 | 0.01 | 0.01 | 75 | 1011.5 |
| 20260509175051 | 76 | 169 | 1.0 | 8.0 | 0.00 | 0.01 | 0.01 | 75 | 1011.7 |
| 20260509174601 | 77 | 237 | 3.0 | 8.0 | 0.00 | 0.01 | 0.01 | 75 | 1011.8 |
| 20260509174051 | 76 | 117 | 1.0 | 5.0 | 0.00 | 0.01 | 0.01 | 74 | 1011.8 |
| 20260509173550 | 76 | 226 | 1.0 | 8.0 | 0.00 | 0.01 | 0.01 | 76 | 1011.9 |
| 20260509173059 | 77 | 234 | 1.0 | 7.0 | 0.00 | 0.01 | 0.01 | 74 | 1011.8 |
| 20260509172549 | 77 | 231 | 1.0 | 4.0 | 0.00 | 0.01 | 0.01 | 75 | 1011.9 |
| 20260509172150 | 76 | 244 | 2.0 | 8.0 | 0.00 | 0.01 | 0.01 | 76 | 1012.1 |
| 20260509171551 | 76 | 232 | 2.0 | 8.0 | 0.00 | 0.01 | 0.01 | 75 | 1012.1 |
| 20260509171045 | 76 | 220 | 2.0 | 8.0 | 0.00 | 0.01 | 0.01 | 76 | 1012.2 |
| 20260509170544 | 76 | 74 | 2.0 | 5.0 | 0.00 | 0.01 | 0.01 | 76 | 1012.4 |
| 20260509170045 | 75 | 266 | 1.0 | 6.0 | 0.00 | 0.01 | 0.01 | 79 | 1012.4 |
| 20260509165541 | 74 | 236 | 1.0 | 6.0 | 0.00 | 0.01 | 0.01 | 78 | 1012.3 |
| 20260509165041 | 74 | 230 | 1.0 | 5.0 | 0.00 | 0.01 | 0.01 | 79 | 1012.3 |
| 20260509164545 | 74 | 158 | 0.0 | 5.0 | 0.01 | 0.01 | 0.01 | 82 | 1012.3 |
| 20260509164039 | 74 | 109 | 1.0 | 5.0 | 0.01 | 0.01 | 0.01 | 81 | 1012.3 |
| 20260509163537 | 73 | 350 | 1.0 | 5.0 | 0.01 | 0.01 | 0.01 | 81 | 1012.5 |
| 20260509163037 | 73 | 249 | 0.0 | 3.0 | 0.01 | 0.01 | 0.01 | 82 | 1012.7 |
| 20260509162535 | 72 | 275 | 0.0 | 3.0 | 0.01 | 0.01 | 0.01 | 81 | 1012.8 |
| 20260509162136 | 71 | 252 | 0.0 | 2.0 | 0.01 | 0.01 | 0.01 | 84 | 1012.8 |
| 20260509161534 | 71 | 258 | 0.0 | 2.0 | 0.01 | 0.01 | 0.01 | 86 | 1012.8 |
| 20260509161038 | 70 | 235 | 0.0 | 2.0 | 0.01 | 0.01 | 0.01 | 86 | 1012.9 |
| 20260509160532 | 70 | 235 | 0.0 | 3.0 | 0.01 | 0.01 | 0.01 | 86 | 1012.9 |
| 20260509160032 | 70 | 250 | 0.0 | 3.0 | 0.01 | 0.01 | 0.01 | 89 | 1012.9 |
| 20260509155531 | 70 | 330 | 0.0 | 2.0 | 0.01 | 0.01 | 0.01 | 90 | 1013.0 |
| 20260509155034 | 69 | 27 | 0.0 | 2.0 | 0.01 | 0.01 | 0.01 | 91 | 1013.2 |
| 20260509154535 | 69 | 23 | 0.0 | 2.0 | 0.00 | 0.00 | 0.00 | 91 | 1013.2 |
| 20260509154032 | 69 | 23 | 0.0 | 2.0 | 0.00 | 0.00 | 0.00 | 90 | 1013.2 |
| 20260509153530 | 69 | 23 | 0.0 | 3.0 | 0.00 | 0.00 | 0.00 | 89 | 1013.4 |
| 20260509153033 | 69 | 23 | 1.0 | 3.0 | 0.00 | 0.00 | 0.00 | 88 | 1013.6 |
| 20260509152531 | 69 | 29 | 0.0 | 2.0 | 0.00 | 0.00 | 0.00 | 89 | 1013.7 |
| 20260509152131 | 69 | 276 | 0.0 | 0.0 | 0.00 | 0.00 | 0.00 | 91 | 1013.9 |
| 20260509151533 | 69 | 276 | 0.0 | 0.0 | 0.00 | 0.00 | 0.00 | 90 | 1013.9 |
| 20260509151030 | 69 | 276 | 0.0 | 2.0 | 0.00 | 0.00 | 0.00 | 90 | 1014.0 |
| 20260509150530 | 69 | 276 | 0.0 | 2.0 | 0.00 | 0.00 | 0.00 | 89 | 1014.0 |
| 20260509150031 | 69 | 276 | 0.0 | 1.0 | 0.00 | 0.00 | 0.00 | 89 | 1014.1 |
| 20260509145530 | 69 | 276 | 0.0 | 1.0 | 0.00 | 0.00 | 0.00 | 88 | 1014.1 |
| 20260509145033 | 70 | 276 | 0.0 | 2.0 | 0.00 | 0.00 | 0.00 | 88 | 1014.0 |
| 20260509144529 | 70 | 276 | 0.0 | 2.0 | 0.00 | 0.00 | 0.00 | 87 | 1014.0 |
| 20260509144030 | 70 | 267 | 0.0 | 1.0 | 0.00 | 0.00 | 0.00 | 87 | 1013.9 |
| 20260509143532 | 70 | 267 | 0.0 | 1.0 | 0.00 | 0.00 | 0.00 | 87 | 1013.7 |
| 20260509143031 | 70 | 53 | 0.0 | 0.0 | 0.00 | 0.00 | 0.00 | 88 | 1013.7 |
| 20260509142525 | 69 | 53 | 0.0 | 0.0 | 0.00 | 0.00 | 0.00 | 89 | 1013.6 |
| 20260509142125 | 68 | 53 | 0.0 | 0.0 | 0.00 | 0.00 | 0.00 | 92 | 1013.7 |
| 20260509141524 | 68 | 53 | 0.0 | 0.0 | 0.00 | 0.00 | 0.00 | 92 | 1013.6 |
| 20260509141024 | 67 | 53 | 0.0 | 0.0 | 0.00 | 0.00 | 0.00 | 92 | 1013.6 |
| 20260509140524 | 67 | 53 | 0.0 | 0.0 | 0.00 | 0.00 | 0.00 | 92 | 1013.7 |
| 20260509140034 | 67 | 53 | 0.0 | 0.0 | 0.00 | 0.00 | 0.00 | 92 | 1013.9 |
| 20260509135526 | 67 | 53 | 0.0 | 0.0 | 0.00 | 0.00 | 0.00 | 93 | 1013.7 |
| 20260509135024 | 67 | 31 | 0.0 | 0.0 | 0.00 | 0.00 | 0.00 | 94 | 1014.0 |
| 20260509134520 | 66 | 31 | 0.0 | 0.0 | 0.00 | 0.00 | 0.00 | 94 | 1014.1 |
| 20260509134019 | 66 | 31 | 0.0 | 0.0 | 0.00 | 0.00 | 0.00 | 95 | 1014.0 |
| 20260509133518 | 66 | 31 | 0.0 | 0.0 | 0.00 | 0.00 | 0.00 | 95 | 1013.9 |
| 20260509133017 | 65 | 31 | 0.0 | 0.0 | 0.00 | 0.00 | 0.00 | 95 | 1013.9 |
| 20260509132516 | 65 | 31 | 0.0 | 0.0 | 0.00 | 0.00 | 0.00 | 95 | 1013.9 |
| 20260509132115 | 65 | 31 | 0.0 | 0.0 | 0.00 | 0.00 | 0.00 | 96 | 1013.9 |
| 20260509131528 | 65 | 31 | 0.0 | 0.0 | 0.00 | 0.00 | 0.00 | 96 | 1013.8 |
| 20260509131014 | 65 | 31 | 0.0 | 0.0 | 0.00 | 0.00 | 0.00 | 96 | 1013.8 |
| 20260509130515 | 64 | 31 | 0.0 | 0.0 | 0.00 | 0.00 | 0.00 | 97 | 1013.8 |
| 20260509130023 | 64 | 31 | 0.0 | 0.0 | 0.00 | 0.00 | 0.00 | 98 | 1013.7 |
| 20260509125512 | 64 | 31 | 0.0 | 0.0 | 0.00 | 0.00 | 0.00 | 98 | 1013.6 |
| 20260509125013 | 63 | 31 | 0.0 | 0.0 | 0.00 | 0.00 | 0.00 | 98 | 1013.6 |
| 20260509124515 | 63 | 35 | 0.0 | 0.0 | 0.00 | 0.00 | 0.00 | 98 | 1013.6 |
| 20260509124009 | 63 | 260 | 0.0 | 0.0 | 0.00 | 0.00 | 0.00 | 98 | 1013.7 |
| 20260509123508 | 62 | 260 | 0.0 | 0.0 | 0.00 | 0.00 | 0.00 | 98 | 1013.7 |
| 20260509123009 | 62 | 260 | 0.0 | 0.0 | 0.00 | 0.00 | 0.00 | 99 | 1013.8 |
| 20260509122506 | 62 | 259 | 0.0 | 0.0 | 0.00 | 0.00 | 0.00 | 99 | 1013.8 |
| 20260509122107 | 62 | 260 | 0.0 | 0.0 | 0.00 | 0.00 | 0.00 | 99 | 1014.0 |
| 20260509121511 | 62 | 260 | 0.0 | 0.0 | 0.00 | 0.00 | 0.00 | 99 | 1014.0 |
| 20260509121008 | 61 | 260 | 0.0 | 0.0 | 0.00 | 0.00 | 0.00 | 99 | 1014.0 |
| 20260509120506 | 61 | 259 | 0.0 | 0.0 | 0.00 | 0.00 | 0.00 | 99 | 1014.0 |
| 20260509120004 | 61 | 260 | 0.0 | 0.0 | 0.00 | 0.00 | 0.00 | 99 | 1014.1 |
| 20260509115503 | 61 | 259 | 0.0 | 0.0 | 0.00 | 0.00 | 0.00 | 99 | 1013.8 |
| 20260509115003 | 61 | 260 | 0.0 | 0.0 | 0.00 | 0.00 | 0.00 | 99 | 1013.8 |
| 20260509114503 | 60 | 260 | 0.0 | 0.0 | 0.00 | 0.00 | 0.00 | 99 | 1013.8 |
| 20260509114003 | 60 | 259 | 0.0 | 0.0 | 0.00 | 0.00 | 0.00 | 99 | 1013.7 |
| 20260509113502 | 60 | 259 | 0.0 | 0.0 | 0.00 | 0.00 | 0.00 | 99 | 1013.7 |
| 20260509113001 | 60 | 260 | 0.0 | 0.0 | 0.00 | 0.00 | 0.00 | 99 | 1013.6 |
| 20260509112601 | 60 | 260 | 0.0 | 0.0 | 0.00 | 0.00 | 0.00 | 99 | 1013.5 |
| 20260509112059 | 58 | 260 | 0.0 | 0.0 | 0.00 | 0.00 | 0.00 | 99 | 1013.3 |
| 20260509111606 | 58 | 260 | 0.0 | 0.0 | 0.00 | 0.00 | 0.00 | 99 | 1013.4 |
| 20260509111058 | 57 | 259 | 0.0 | 0.0 | 0.00 | 0.00 | 0.00 | 99 | 1013.5 |
| 20260509110557 | 57 | 259 | 0.0 | 4.0 | 0.00 | 0.00 | 0.00 | 99 | 1013.6 |
| 20260509110059 | 57 | 260 | 0.0 | 1.0 | 0.00 | 0.00 | 0.00 | 99 | 1013.5 |
| 20260509105556 | 57 | 260 | 0.0 | 0.0 | 0.00 | 0.00 | 0.00 | 99 | 1013.4 |
| 20260509105156 | 57 | 260 | 0.0 | 0.0 | 0.00 | 0.00 | 0.00 | 99 | 1013.5 |
| 20260509104556 | 57 | 260 | 0.0 | 0.0 | 0.00 | 0.00 | 0.00 | 99 | 1013.5 |
| 20260509104055 | 56 | 260 | 0.0 | 0.0 | 0.00 | 0.00 | 0.00 | 99 | 1013.4 |
| 20260509103555 | 56 | 260 | 0.0 | 0.0 | 0.00 | 0.00 | 0.00 | 99 | 1013.3 |
| 20260509103057 | 56 | 260 | 0.0 | 0.0 | 0.00 | 0.00 | 0.00 | 99 | 1013.3 |
| 20260509102557 | 56 | 260 | 0.0 | 0.0 | 0.00 | 0.00 | 0.00 | 99 | 1013.2 |
| 20260509102055 | 56 | 260 | 0.0 | 0.0 | 0.00 | 0.00 | 0.00 | 99 | 1013.1 |
| 20260509101503 | 56 | 260 | 0.0 | 0.0 | 0.00 | 0.00 | 0.00 | 98 | 1013.1 |
| 20260509101004 | 56 | 260 | 0.0 | 0.0 | 0.00 | 0.00 | 0.00 | 98 | 1013.1 |
| 20260509100502 | 56 | 260 | 0.0 | 0.0 | 0.00 | 0.00 | 0.00 | 99 | 1013.2 |
| 20260509100003 | 56 | 260 | 0.0 | 0.0 | 0.00 | 0.00 | 0.00 | 98 | 1013.3 |
| 20260509095504 | 56 | 260 | 0.0 | 0.0 | 0.00 | 0.00 | 0.00 | 98 | 1013.4 |
| 20260509095101 | 57 | 260 | 0.0 | 0.0 | 0.00 | 0.00 | 0.00 | 98 | 1013.4 |
| 20260509095001 | 57 | 260 | 0.0 | 0.0 | 0.00 | 0.00 | 0.00 | 98 | 1013.4 |
| 20260509094501 | 57 | 260 | 0.0 | 0.0 | 0.00 | 0.00 | 0.00 | 98 | 1013.5 |
| 20260509094100 | 57 | 260 | 0.0 | 0.0 | 0.00 | 0.00 | 0.00 | 99 | 1013.6 |
| 20260509093600 | 57 | 260 | 0.0 | 0.0 | 0.00 | 0.00 | 0.00 | 98 | 1013.5 |
| 20260509093100 | 57 | 260 | 0.0 | 0.0 | 0.00 | 0.00 | 0.00 | 98 | 1013.4 |
| 20260509092600 | 57 | 260 | 0.0 | 0.0 | 0.00 | 0.00 | 0.00 | 98 | 1013.5 |
| 20260509092059 | 57 | 260 | 0.0 | 0.0 | 0.00 | 0.00 | 0.00 | 98 | 1013.5 |
| 20260509091553 | 57 | 260 | 0.0 | 0.0 | 0.00 | 0.00 | 0.00 | 99 | 1013.5 |
| 20260509091053 | 57 | 260 | 0.0 | 0.0 | 0.00 | 0.00 | 0.00 | 98 | 1013.4 |
| 20260509090552 | 57 | 260 | 0.0 | 0.0 | 0.00 | 0.00 | 0.00 | 98 | 1013.4 |
| 20260509090105 | 57 | 260 | 0.0 | 0.0 | 0.00 | 0.00 | 0.00 | 98 | 1013.6 |
| 20260509085553 | 57 | 260 | 0.0 | 0.0 | 0.00 | 0.00 | 0.00 | 98 | 1013.7 |
| 20260509085051 | 57 | 260 | 0.0 | 1.0 | 0.00 | 0.00 | 0.00 | 98 | 1013.8 |
| 20260509084558 | 57 | 260 | 0.0 | 1.0 | 0.00 | 0.00 | 0.00 | 98 | 1013.6 |
| 20260509084051 | 57 | 260 | 0.0 | 1.0 | 0.00 | 0.00 | 0.00 | 98 | 1013.3 |
| 20260509083550 | 57 | 260 | 0.0 | 0.0 | 0.00 | 0.00 | 0.00 | 98 | 1013.4 |
| 20260509083058 | 57 | 260 | 0.0 | 0.0 | 0.00 | 0.00 | 0.00 | 98 | 1013.6 |
| 20260509082549 | 57 | 260 | 0.0 | 0.0 | 0.00 | 0.00 | 0.00 | 98 | 1013.6 |
| 20260509082053 | 57 | 260 | 0.0 | 0.0 | 0.00 | 0.00 | 0.00 | 98 | 1013.8 |
| 20260509081548 | 57 | 260 | 0.0 | 0.0 | 0.00 | 0.00 | 0.00 | 98 | 1013.8 |
| 20260509081047 | 57 | 260 | 0.0 | 1.0 | 0.00 | 0.00 | 0.00 | 98 | 1013.8 |
| 20260509080548 | 57 | 260 | 0.0 | 1.0 | 0.00 | 0.00 | 0.00 | 98 | 1013.9 |
| 20260509080048 | 57 | 260 | 0.0 | 1.0 | 0.00 | 0.00 | 0.00 | 98 | 1013.7 |
| 20260509075548 | 57 | 260 | 0.0 | 1.0 | 0.00 | 0.00 | 0.00 | 98 | 1013.6 |
| 20260509075046 | 57 | 260 | 0.0 | 0.0 | 0.00 | 0.00 | 0.00 | 98 | 1013.7 |
| 20260509074544 | 57 | 260 | 0.0 | 0.0 | 0.00 | 0.00 | 0.00 | 98 | 1014.1 |
| 20260509074044 | 57 | 260 | 0.0 | 0.0 | 0.00 | 0.00 | 0.00 | 98 | 1014.1 |
| 20260509073543 | 57 | 260 | 0.0 | 0.0 | 0.00 | 0.00 | 0.00 | 98 | 1014.1 |
| 20260509073047 | 57 | 260 | 0.0 | 0.0 | 0.00 | 0.00 | 0.00 | 98 | 1014.3 |
| 20260509072546 | 58 | 260 | 0.0 | 1.0 | 0.00 | 0.00 | 0.00 | 98 | 1014.4 |
| 20260509072043 | 57 | 260 | 0.0 | 2.0 | 0.00 | 0.00 | 0.00 | 98 | 1014.5 |
| 20260509071543 | 57 | 260 | 0.0 | 2.0 | 0.00 | 0.00 | 0.00 | 99 | 1014.5 |
| 20260509071042 | 57 | 103 | 0.0 | 1.0 | 0.00 | 0.00 | 0.00 | 98 | 1014.5 |
| 20260509070541 | 57 | 102 | 0.0 | 0.0 | 0.00 | 0.00 | 0.00 | 98 | 1014.5 |
| 20260509070042 | 57 | 103 | 0.0 | 1.0 | 0.00 | 0.00 | 0.00 | 98 | 1014.4 |
| 20260509065540 | 57 | 103 | 0.0 | 1.0 | 0.00 | 0.00 | 0.00 | 99 | 1014.5 |
| 20260509065043 | 57 | 102 | 0.0 | 0.0 | 0.00 | 0.00 | 0.00 | 98 | 1014.4 |
| 20260509064544 | 57 | 103 | 0.0 | 0.0 | 0.00 | 0.00 | 0.00 | 98 | 1014.4 |
| 20260509064039 | 57 | 102 | 0.0 | 1.0 | 0.00 | 0.00 | 0.00 | 98 | 1014.4 |
| 20260509063537 | 57 | 103 | 0.0 | 1.0 | 0.00 | 0.00 | 0.00 | 98 | 1014.5 |
| 20260509063038 | 56 | 102 | 0.0 | 0.0 | 0.00 | 0.00 | 0.00 | 98 | 1014.4 |
| 20260509062537 | 56 | 102 | 0.0 | 0.0 | 0.00 | 0.00 | 0.00 | 98 | 1014.6 |
| 20260509062037 | 56 | 103 | 0.0 | 0.0 | 0.00 | 0.00 | 0.00 | 98 | 1014.6 |
| 20260509061541 | 56 | 102 | 0.0 | 0.0 | 0.00 | 0.00 | 0.00 | 98 | 1014.5 |
| 20260509061035 | 56 | 103 | 0.0 | 0.0 | 0.00 | 0.00 | 0.00 | 98 | 1014.5 |
| 20260509060534 | 56 | 103 | 0.0 | 0.0 | 0.00 | 0.00 | 0.00 | 98 | 1014.7 |
| 20260509060037 | 56 | 103 | 0.0 | 0.0 | 0.00 | 0.00 | 0.00 | 98 | 1014.8 |
| 20260509055533 | 56 | 103 | 0.0 | 0.0 | 0.00 | 0.00 | 0.00 | 98 | 1014.9 |
| 20260509055033 | 56 | 103 | 0.0 | 0.0 | 0.00 | 0.00 | 0.00 | 98 | 1015.1 |
| 20260509054531 | 56 | 102 | 0.0 | 0.0 | 0.00 | 0.00 | 0.00 | 98 | 1015.1 |
| 20260509054030 | 56 | 103 | 0.0 | 0.0 | 0.00 | 0.00 | 0.00 | 98 | 1015.3 |
| 20260509053530 | 56 | 103 | 0.0 | 0.0 | 0.00 | 0.00 | 0.00 | 98 | 1015.3 |
| 20260509053042 | 56 | 102 | 0.0 | 0.0 | 0.00 | 0.00 | 0.00 | 98 | 1015.3 |
| 20260509052529 | 55 | 103 | 0.0 | 0.0 | 0.00 | 0.00 | 0.00 | 98 | 1015.2 |
| 20260509052029 | 55 | 103 | 0.0 | 0.0 | 0.00 | 0.00 | 0.00 | 98 | 1015.2 |
| 20260509051530 | 55 | 103 | 0.0 | 0.0 | 0.00 | 0.00 | 0.00 | 98 | 1015.2 |
| 20260509051029 | 55 | 102 | 0.0 | 0.0 | 0.00 | 0.00 | 0.00 | 98 | 1015.2 |
| 20260509050528 | 55 | 103 | 0.0 | 0.0 | 0.00 | 0.00 | 0.00 | 98 | 1015.2 |
| 20260509050030 | 55 | 102 | 0.0 | 0.0 | 0.00 | 0.00 | 0.00 | 98 | 1015.2 |
| 20260509045528 | 55 | 102 | 0.0 | 0.0 | 0.00 | 0.00 | 0.00 | 98 | 1015.3 |
| 20260509045028 | 55 | 103 | 0.0 | 0.0 | 0.00 | 0.00 | 0.00 | 98 | 1015.2 |
| 20260509044527 | 55 | 103 | 0.0 | 0.0 | 0.00 | 0.00 | 0.00 | 98 | 1015.2 |
| 20260509044027 | 55 | 102 | 0.0 | 0.0 | 0.00 | 0.00 | 0.00 | 98 | 1015.3 |
| 20260509043526 | 55 | 103 | 0.0 | 0.0 | 0.00 | 0.00 | 0.00 | 98 | 1015.3 |
| 20260509043025 | 55 | 102 | 0.0 | 0.0 | 0.00 | 0.00 | 0.00 | 98 | 1015.4 |
| 20260509042524 | 55 | 103 | 0.0 | 0.0 | 0.00 | 0.00 | 0.00 | 98 | 1015.4 |
| 20260509042024 | 55 | 103 | 0.0 | 0.0 | 0.00 | 0.00 | 0.00 | 98 | 1015.6 |
| 20260509041535 | 55 | 102 | 0.0 | 0.0 | 0.00 | 0.00 | 0.00 | 98 | 1015.6 |
| 20260509041022 | 55 | 102 | 0.0 | 0.0 | 0.00 | 0.00 | 0.00 | 98 | 1015.6 |
| 20260509040522 | 55 | 103 | 0.0 | 0.0 | 0.00 | 0.00 | 0.00 | 97 | 1015.8 |
| 20260509040020 | 55 | 103 | 0.0 | 0.0 | 0.00 | 0.00 | 0.00 | 97 | 1016.0 |
| 20260509035523 | 55 | 103 | 0.0 | 0.0 | 0.00 | 0.08 | 0.00 | 97 | 1015.8 |
| 20260509035019 | 55 | 103 | 0.0 | 0.0 | 0.00 | 0.08 | 0.00 | 97 | 1015.8 |
| 20260509034522 | 55 | 103 | 0.0 | 0.0 | 0.00 | 0.08 | 0.00 | 97 | 1015.8 |
| 20260509034020 | 55 | 103 | 0.0 | 0.0 | 0.00 | 0.08 | 0.00 | 97 | 1016.0 |
| 20260509033520 | 55 | 102 | 0.0 | 0.0 | 0.00 | 0.08 | 0.00 | 97 | 1016.0 |
| 20260509033020 | 55 | 102 | 0.0 | 0.0 | 0.00 | 0.08 | 0.00 | 97 | 1016.0 |
| 20260509032520 | 55 | 103 | 0.0 | 0.0 | 0.00 | 0.08 | 0.00 | 97 | 1016.1 |
| 20260509032019 | 55 | 103 | 0.0 | 0.0 | 0.00 | 0.08 | 0.00 | 97 | 1016.2 |
| 20260509031519 | 55 | 102 | 0.0 | 0.0 | 0.00 | 0.08 | 0.00 | 97 | 1016.2 |
| 20260509031020 | 55 | 103 | 0.0 | 0.0 | 0.00 | 0.08 | 0.00 | 97 | 1016.2 |
| 20260509030519 | 55 | 103 | 0.0 | 0.0 | 0.00 | 0.08 | 0.00 | 97 | 1016.0 |
| 20260509030021 | 55 | 103 | 0.0 | 0.0 | 0.00 | 0.08 | 0.00 | 97 | 1016.0 |
| 20260509025519 | 55 | 103 | 0.0 | 0.0 | 0.00 | 0.08 | 0.00 | 97 | 1016.0 |
| 20260509025019 | 55 | 102 | 0.0 | 0.0 | 0.00 | 0.08 | 0.00 | 96 | 1015.8 |
| 20260509024520 | 55 | 102 | 0.0 | 0.0 | 0.00 | 0.08 | 0.00 | 97 | 1015.9 |
| 20260509024019 | 55 | 102 | 0.0 | 0.0 | 0.00 | 0.08 | 0.00 | 97 | 1016.1 |
| 20260509023519 | 56 | 103 | 0.0 | 1.0 | 0.00 | 0.08 | 0.00 | 97 | 1016.2 |
| 20260509023019 | 56 | 102 | 0.0 | 1.0 | 0.00 | 0.08 | 0.00 | 97 | 1016.3 |
| 20260509022518 | 56 | 103 | 0.0 | 0.0 | 0.00 | 0.08 | 0.00 | 97 | 1016.2 |
| 20260509022022 | 55 | 103 | 0.0 | 0.0 | 0.00 | 0.08 | 0.00 | 96 | 1016.2 |
| 20260509021022 | 55 | 102 | 0.0 | 0.0 | 0.00 | 0.08 | 0.00 | 96 | 1016.2 |
| 20260509020520 | 55 | 102 | 0.0 | 0.0 | 0.00 | 0.08 | 0.00 | 96 | 1016.1 |
| 20260509020023 | 56 | 102 | 0.0 | 0.0 | 0.00 | 0.08 | 0.00 | 96 | 1016.2 |
| 20260509015518 | 56 | 102 | 0.0 | 0.0 | 0.00 | 0.08 | 0.00 | 96 | 1016.2 |
| 20260509015019 | 56 | 103 | 0.0 | 0.0 | 0.00 | 0.08 | 0.00 | 96 | 1016.1 |
| 20260509014517 | 56 | 103 | 0.0 | 0.0 | 0.00 | 0.08 | 0.00 | 96 | 1015.9 |
| 20260509014023 | 55 | 103 | 0.0 | 0.0 | 0.00 | 0.08 | 0.00 | 95 | 1015.9 |
| 20260509013520 | 55 | 103 | 0.0 | 0.0 | 0.00 | 0.08 | 0.00 | 95 | 1015.9 |
| 20260509013018 | 55 | 102 | 0.0 | 0.0 | 0.00 | 0.08 | 0.00 | 95 | 1015.8 |
| 20260509012520 | 55 | 102 | 0.0 | 0.0 | 0.00 | 0.08 | 0.00 | 95 | 1015.8 |
| 20260509012018 | 56 | 102 | 0.0 | 0.0 | 0.00 | 0.08 | 0.00 | 94 | 1015.7 |
| 20260509011526 | 56 | 102 | 0.0 | 0.0 | 0.00 | 0.08 | 0.00 | 94 | 1015.7 |
| 20260509011020 | 56 | 103 | 0.0 | 0.0 | 0.00 | 0.08 | 0.00 | 94 | 1015.7 |
| 20260509010519 | 56 | 102 | 0.0 | 0.0 | 0.00 | 0.08 | 0.00 | 93 | 1015.5 |
| 20260509010035 | 56 | 103 | 0.0 | 0.0 | 0.00 | 0.08 | 0.00 | 93 | 1015.5 |
| 20260509005519 | 56 | 103 | 0.0 | 0.0 | 0.00 | 0.08 | 0.00 | 93 | 1015.5 |
| 20260509005024 | 57 | 103 | 0.0 | 0.0 | 0.00 | 0.08 | 0.00 | 92 | 1015.5 |
| 20260509004525 | 57 | 103 | 0.0 | 0.0 | 0.00 | 0.08 | 0.00 | 91 | 1015.7 |
| 20260509004018 | 57 | 103 | 0.0 | 0.0 | 0.00 | 0.08 | 0.00 | 91 | 1015.8 |
| 20260509003519 | 58 | 103 | 0.0 | 0.0 | 0.00 | 0.08 | 0.00 | 91 | 1015.8 |
| 20260509003018 | 58 | 102 | 0.0 | 0.0 | 0.00 | 0.08 | 0.00 | 90 | 1015.7 |
| 20260509002518 | 58 | 103 | 0.0 | 0.0 | 0.00 | 0.08 | 0.00 | 90 | 1015.7 |
| 20260509002018 | 59 | 102 | 0.0 | 0.0 | 0.00 | 0.08 | 0.00 | 87 | 1015.6 |
| 20260509001516 | 59 | 103 | 0.0 | 0.0 | 0.00 | 0.08 | 0.00 | 87 | 1015.6 |
| 20260509001017 | 60 | 102 | 0.0 | 0.0 | 0.00 | 0.08 | 0.00 | 86 | 1015.7 |
| 20260509000515 | 60 | 103 | 0.0 | 0.0 | 0.00 | 0.08 | 0.00 | 85 | 1015.6 |
| 20260509000015 | 61 | 103 | 0.0 | 1.0 | 0.00 | 0.08 | 0.00 | 83 | 1015.6 |
| 20260508235515 | 61 | 103 | 0.0 | 1.0 | 0.00 | 0.08 | 0.00 | 82 | 1015.6 |
| 20260508235016 | 62 | 102 | 0.0 | 1.0 | 0.00 | 0.08 | 0.00 | 81 | 1015.5 |
| 20260508234522 | 62 | 103 | 0.0 | 1.0 | 0.00 | 0.08 | 0.00 | 80 | 1015.4 |
| 20260508234017 | 62 | 103 | 0.0 | 1.0 | 0.00 | 0.08 | 0.00 | 80 | 1015.4 |
| 20260508233516 | 63 | 102 | 0.0 | 1.0 | 0.00 | 0.08 | 0.00 | 79 | 1015.4 |